Regional Weather Roundup
Issued by NWS

Home | Current Version | Previous Version | Graphics & Text | Print | Product List | Glossary On
Versions: 1 2 3 4 5 6 7 8 9 10 11 12 13 14 15 16 17 18 19 20 21 22 23 24 25 26 27 28 29 30 31 32 33 34 35 36 37 38 39 40 41 42 43 44 45 46 47 48 49 50
000
ASUS43 KLMK 240102
RWRKY
KENTUCKY REGIONAL WEATHER ROUNDUP
NATIONAL WEATHER SERVICE LOUISVILLE KY
900 PM EDT SAT SEP 23 2017

NOTE "FAIR" INDICATES FEW OR NO CLOUDS BELOW 12,000 FEET
WITH NO SIGNIFICANT WEATHER AND/OR OBSTRUCTIONS TO VISIBILITY.

KYZ001>023-026-027-061>063-070>075-240200-
WESTERN AND SOUTH CENTRAL KENTUCKY

CITY           SKY/WX    TMP DP  RH WIND       PRES   REMARKS
PADUCAH        CLEAR     75  66  73 E3        29.99R
HENDERSON      CLEAR     78  65  63 E3        30.03S
OWENSBORO      CLEAR     80  65  59 CALM      30.03S
HOPKINSVILLE   NOT AVBL
BOWLING GREEN  CLEAR     76  68  76 CALM      30.03S
GLASGOW        CLEAR     73  66  79 CALM      30.04S
$$

KYZ024-025-028>034-038-045-046-053-240200-
NORTH CENTRAL KENTUCKY

CITY           SKY/WX    TMP DP  RH WIND       PRES   REMARKS
LOUISVILLE/SDF PTCLDY    82  62  50 E5        30.05S
LOUISVILLE/LOU CLEAR     75  66  73 CALM      30.06R
FORT KNOX      NOT AVBL
$$

KYZ035>037-039>044-047>052-055>060-089>105-240200-
NORTHEAST KENTUCKY

CITY           SKY/WX    TMP DP  RH WIND       PRES   REMARKS
LEXINGTON      CLEAR     78  62  57 E6        30.08S
COVINGTON      PTCLDY    77  66  68 CALM      30.08R
FRANKFORT      CLEAR     73  63  70 CALM      30.06S
$$

KYZ054-064>069-076>088-106>120-240200-
SOUTHEAST KENTUCKY

CITY           SKY/WX    TMP DP  RH WIND       PRES   REMARKS
JACKSON        CLEAR     74  61  63 CALM      30.10R
LONDON         CLEAR     73  63  70 CALM      30.08S
SOMERSET       NOT AVBL
MIDDLESBORO    CLEAR     70  67  89 CALM      30.09R
MONTICELLO     CLEAR     67  65  93 CALM      30.08
$$





USA.gov is the U.S. government's official web portal to all federal, state and local government web resources and services.